Location: Unspecified
(0.0000°N, 0.0000°E)
Time: 17:29:22
(UTC+00:00)

Vanguard 1 - Pass Details

Date: 23 December 2025
Orbit: 651 x 3820 km, 34.2° (Epoch: 14 January)

Event Time Altitude Azimuth Distance (km) Brightness Sun altitude
Rises 22:47:01 0° 225° (SW) 7,897 15.1 -60.7°
Reaches altitude 10° 22:55:04 10° 211° (SSW) 6,596 14.5 -61.8°
Maximum altitude 23:09:19 23° 166° (SSE) 4,634 13.5 -63.6°
Enters shadow 23:14:02 20° 144° (SE) 4,399 13.3 -64.1°
